Date,TemperatureHighF,TemperatureAvgF,TemperatureLowF,DewpointHighF,DewpointAvgF,DewpointLowF,HumidityHigh,HumidityAvg,HumidityLow,PressureMaxIn,PressureMinIn,WindSpeedMaxMPH,WindSpeedAvgMPH,GustSpeedMaxMPH,PrecipitationSumIn
2013-1-1,38,30,20,38,29,19,99,97,93,30.26,30.01,12,6,17,0.01
2013-1-2,42,28,16,32,24,16,99,87,65,30.26,30.14,9,3,14,0.00
2013-1-3,50,33,22,36,28,22,99,83,48,30.43,30.25,7,2,9,0.00
2013-1-4,54,35,21,31,26,20,99,74,38,30.42,30.27,12,4,16,0.00
2013-1-5,50,42,36,37,34,28,85,73,58,30.27,30.12,13,7,15,0.00
2013-1-6,53,35,26,30,26,22,93,72,37,30.38,30.23,11,3,11,0.00
2013-1-7,54,38,24,34,28,20,87,69,45,30.30,30.06,15,5,17,0.00
2013-1-8,58,44,35,48,37,29,99,78,54,30.16,29.99,12,5,18,0.06
2013-1-9,55,49,44,49,46,43,99,89,69,30.30,30.13,11,5,15,0.01
2013-1-10,57,52,49,57,51,46,99,97,81,30.11,29.76,14,6,17,0.15
2013-1-11,71,57,46,54,50,45,99,79,48,29.81,29.62,17,10,24,0.01
2013-1-12,62,38,25,54,31,23,99,80,42,30.04,29.76,21,5,21,0.05
2013-1-13,33,25,18,23,18,14,93,77,59,30.34,29.99,0,0,0,0.00
2013-1-14,35,25,16,22,18,13,91,76,54,30.45,30.30,14,2,14,0.01
2013-1-15,36,27,18,24,18,14,95,72,46,30.31,30.16,11,4,14,0.00
2013-1-16,51,35,17,25,21,14,94,60,33,30.19,30.06,9,3,11,0.00
2013-1-17,57,41,29,37,30,22,91,69,40,30.43,30.17,14,4,15,0.00
2013-1-18,60,46,33,37,33,29,86,64,37,30.45,30.13,18,8,22,0.00
2013-1-19,68,52,41,41,38,34,78,62,37,30.17,30.02,13,6,17,0.00
2013-1-20,66,45,31,43,33,20,89,64,42,30.27,30.08,17,6,18,0.00
2013-1-21,44,31,22,20,18,16,77,60,37,30.40,30.25,15,6,15,0.00
2013-1-22,54,34,18,32,24,15,90,70,43,30.29,30.13,11,3,15,0.00
2013-1-23,64,44,26,46,35,24,91,73,51,30.22,30.08,9,3,12,0.00
2013-1-24,44,38,34,35,26,22,71,61,51,30.26,30.06,19,8,19,0.00
2013-1-25,54,40,31,33,29,25,79,65,43,30.21,30.08,9,3,12,0.00
2013-1-26,58,44,30,38,32,27,91,65,38,30.22,30.07,14,5,18,0.00
2013-1-27,64,54,46,60,52,39,99,93,73,30.06,29.81,22,12,22,0.00
2013-1-28,77,69,59,66,65,59,99,88,69,29.88,29.69,22,12,22,0.00
2013-1-29,70,61,44,66,58,44,99,92,77,29.70,29.40,21,10,23,0.83
2013-1-30,42,36,25,41,30,22,97,80,59,30.03,29.56,21,10,21,0.00
2013-1-31,28,27,25,26,25,23,97,93,90,30.02,29.97,6,2,8,0.00
2013-2-1,44,29,16,23,15,8,75,58,35,30.43,30.12,16,5,16,0.00
2013-2-2,62,42,24,38,31,21,91,67,37,30.24,30.12,11,3,14,0.00
2013-2-3,59,48,35,33,31,28,77,54,31,30.27,29.89,13,6,14,0.00
2013-2-4,70,56,40,42,37,33,80,52,30,29.93,29.78,13,6,14,0.04
2013-2-5,72,49,29,45,36,28,99,67,26,30.01,29.88,8,2,9,0.00
2013-2-6,68,52,33,53,43,31,97,72,54,30.02,29.84,22,7,22,0.00
2013-2-7,59,52,41,56,50,39,99,93,80,30.12,29.79,15,7,18,0.01
2013-2-8,52,41,33,39,36,32,97,84,57,30.30,30.11,15,5,16,0.00
2013-2-9,44,41,34,44,38,32,99,90,75,30.14,29.69,18,10,22,0.05
2013-2-10,64,52,40,50,38,29,99,65,28,30.02,29.58,20,10,27,0.08
2013-2-11,57,42,30,32,28,25,84,61,33,30.19,30.02,12,3,13,0.00
2013-2-12,43,37,33,39,33,28,99,88,69,30.09,29.92,12,5,15,0.28
2013-2-13,35,34,33,35,34,33,99,99,99,30.00,29.95,12,5,12,0.01
2013-2-17,71,52,32,38,32,22,80,51,25,30.03,29.71,21,9,21,0.00
2013-2-18,65,55,36,54,41,28,80,62,44,30.12,29.58,29,14,29,0.00
2013-2-19,55,39,23,30,25,21,92,61,35,30.31,30.12,10,3,10,0.00
2013-2-20,36,34,31,36,30,21,99,85,55,30.25,29.97,13,5,13,0.17
2013-2-21,35,33,27,35,33,24,99,99,87,29.97,29.64,17,6,17,1.02
2013-2-22,40,29,20,26,22,18,94,77,52,30.11,29.92,13,6,13,0.00
2013-2-23,50,32,18,29,23,18,97,74,44,30.10,29.91,7,2,9,0.00
2013-2-24,60,44,26,42,34,24,93,71,49,29.93,29.71,18,6,22,0.00
2013-2-25,44,39,33,40,37,33,99,94,76,29.79,29.44,24,11,24,1.05
2013-2-26,44,37,33,37,34,31,99,91,73,29.88,29.47,21,11,24,0.19
2013-2-27,49,38,32,35,32,29,97,79,54,30.12,29.86,20,8,20,0.00
2013-2-28,46,37,29,34,30,27,96,78,61,30.19,30.10,17,8,17,0.00
2013-3-1,38,36,34,30,29,26,83,75,63,30.24,30.17,12,6,14,0.00
2013-3-2,50,35,25,26,23,19,84,63,36,30.35,30.19,14,6,14,0.00
2013-3-3,66,48,32,37,30,23,75,52,31,30.15,29.68,21,10,21,0.00
2013-3-4,76,58,45,47,42,36,77,58,32,29.93,29.51,20,10,24,0.00
2013-3-5,51,42,35,39,28,21,97,58,34,30.34,29.91,27,12,30,0.02
2013-3-6,52,38,24,30,25,20,86,62,37,30.41,30.18,11,4,11,0.00
2013-3-7,68,51,33,35,31,27,82,51,26,30.19,30.02,20,8,20,0.00
2013-3-8,53,49,48,38,36,34,65,61,50,30.13,30.08,16,8,17,0.00
2013-3-9,65,60,56,61,52,41,99,78,49,29.92,29.60,21,11,21,0.34
2013-3-10,58,44,32,55,41,27,99,89,75,30.00,29.58,21,10,22,0.00
2013-3-11,32,32,28,28,26,24,86,81,79,29.99,29.95,11,7,15,0.00
2013-3-12,64,47,34,45,32,23,94,60,28,30.31,29.99,19,5,19,0.04
2013-3-13,60,44,28,32,26,23,85,54,26,30.46,30.29,10,3,10,0.00
2013-3-14,81,61,42,47,38,28,59,45,27,30.28,30.02,17,7,20,0.00
2013-3-15,87,68,52,54,48,44,83,54,26,30.06,29.70,17,7,24,0.00
2013-3-16,73,62,48,53,48,41,79,61,46,29.83,29.67,20,9,33,0.00
2013-3-17,48,43,40,44,42,39,99,95,79,29.83,29.65,23,8,23,0.00
2013-3-18,43,41,39,42,41,39,99,99,99,29.82,29.66,10,5,11,0.00
2013-3-19,63,46,35,35,30,19,84,59,25,30.22,29.99,18,6,22,0.00
2013-3-20,40,38,36,34,33,32,87,82,77,30.23,30.22,2,1,4,0.00
2013-3-21,43,40,36,38,30,24,99,70,47,30.03,29.71,18,9,18,0.06
2013-3-22,49,41,37,41,39,37,99,91,73,29.89,29.76,13,6,14,0.05
2013-3-23,43,41,38,42,40,38,99,98,92,29.90,29.69,15,7,17,0.06
2013-3-24,41,35,28,37,30,22,99,82,53,30.14,29.72,29,13,30,0.07
2013-3-25,41,33,26,26,23,20,89,67,46,30.35,30.13,21,10,21,0.00
2013-3-26,54,33,23,28,23,20,89,69,36,30.42,30.33,11,4,11,0.00
2013-3-27,69,50,36,38,30,27,72,51,28,30.25,30.04,24,9,27,0.00
2013-3-28,76,61,47,55,46,34,73,58,46,30.14,30.00,14,7,17,0.00
2013-3-29,73,62,51,61,56,50,99,84,66,30.10,30.01,14,5,16,0.09
2013-3-30,78,64,54,64,60,54,99,86,59,30.03,29.77,17,6,20,0.15
2013-3-31,76,62,51,60,51,45,99,72,39,29.98,29.84,24,5,28,0.01
2013-4-1,62,50,42,46,42,34,98,76,56,30.13,29.93,20,8,24,0.00
2013-4-2,44,40,38,41,38,32,99,91,64,30.22,30.12,19,11,24,0.58
2013-4-3,47,42,39,41,37,32,99,83,57,30.21,30.13,12,7,16,0.31
2013-4-4,64,49,39,44,40,38,99,74,40,30.16,30.04,13,5,14,0.21
2013-4-5,72,56,37,48,44,37,99,70,36,30.17,29.90,15,5,19,0.00
2013-4-6,80,67,57,56,52,48,77,60,41,29.89,29.72,21,10,31,0.00
2013-4-7,70,63,53,62,59,52,99,85,73,29.83,29.66,21,8,27,0.00
2013-4-8,65,65,64,61,61,61,88,87,87,29.70,29.69,10,8,10,0.00
2013-4-10,40,38,36,40,38,35,99,98,93,29.92,29.80,17,10,21,0.43
2013-4-11,57,43,34,37,33,29,93,71,43,29.92,29.73,15,8,21,0.00
2013-4-12,66,50,34,41,36,32,94,64,35,29.99,29.78,12,4,13,0.00
2013-4-13,73,58,45,54,48,41,94,70,44,30.01,29.68,22,8,22,0.04
2013-4-14,84,71,58,61,54,49,75,57,40,29.69,29.44,28,12,28,0.00
2013-4-15,73,61,53,60,47,38,79,59,43,29.84,29.65,28,10,28,0.00
2013-4-16,58,52,49,52,49,45,97,88,74,29.96,29.80,24,9,24,0.00
2013-4-17,83,68,51,73,63,50,99,86,67,29.89,29.52,24,10,26,0.54
2013-4-18,66,48,41,66,42,30,99,83,64,30.05,29.46,24,13,24,0.26
2013-4-19,65,47,33,37,31,28,87,59,29,30.11,29.99,17,9,23,0.00
2013-4-20,74,57,39,45,40,34,95,57,23,30.12,29.98,18,6,18,0.00
2013-4-21,73,62,53,49,45,43,76,55,34,30.18,30.03,17,8,17,0.00
2013-4-22,78,68,51,56,52,44,77,55,44,30.06,29.80,22,11,22,0.00
2013-4-23,69,43,37,58,42,36,99,96,59,30.18,29.78,19,10,22,0.18
2013-4-24,62,47,32,36,33,29,99,65,32,30.28,30.16,18,6,18,0.00
2013-4-25,74,57,35,40,35,29,92,50,20,30.32,30.12,12,4,16,0.00
2013-4-26,63,56,52,54,49,40,99,79,45,30.18,30.02,17,8,22,0.33
2013-4-27,59,55,52,55,53,52,99,95,85,30.04,29.93,20,5,25,0.13
2013-4-28,82,66,48,63,57,48,99,75,45,30.00,29.77,11,4,12,0.00
2013-4-29,91,79,62,67,61,55,96,58,35,29.81,29.65,19,10,21,0.00
2013-4-30,87,76,65,64,59,51,83,58,30,29.76,29.68,22,10,26,0.00
2013-5-1,86,74,57,68,63,48,90,70,50,30.03,29.76,17,8,19,0.00
2013-5-2,56,44,36,48,41,36,99,91,75,30.35,30.04,21,12,26,0.30
2013-5-3,63,49,35,39,34,29,99,63,29,30.31,29.93,24,9,28,0.01
2013-5-4,51,45,39,48,42,37,99,89,71,30.00,29.86,17,8,23,0.18
2013-5-5,64,52,44,53,49,44,99,88,67,30.09,30.00,11,6,14,0.00
2013-5-6,74,57,45,59,53,45,99,87,58,30.09,29.96,8,3,9,0.00
2013-5-7,81,64,46,62,54,46,99,73,37,30.05,29.91,8,3,11,0.00
2013-5-8,85,71,60,66,58,53,87,66,43,29.98,29.81,21,8,24,0.04
2013-5-9,77,66,60,68,64,59,99,92,64,29.92,29.78,27,6,27,0.61
2013-5-10,76,66,55,65,60,53,99,83,59,30.03,29.87,14,5,20,0.01
2013-5-11,81,64,50,63,52,41,99,68,28,30.19,30.03,19,5,22,0.00
2013-5-12,76,57,42,47,43,39,97,65,30,30.25,30.15,8,3,11,0.00
2013-5-13,93,74,54,62,54,47,82,54,30,30.09,29.94,11,5,11,0.00
2013-5-14,94,80,66,61,57,52,60,46,27,29.99,29.84,17,8,25,0.00
2013-5-15,78,72,66,71,66,58,99,83,57,29.91,29.73,21,9,24,0.26
2013-5-16,80,70,64,68,66,63,99,89,66,29.83,29.75,15,4,15,0.00
2013-5-17,85,73,62,73,68,61,99,86,63,29.87,29.79,11,4,12,0.00
2013-5-18,74,72,71,73,72,71,99,99,95,29.83,29.79,8,4,11,0.00
2013-5-20,87,76,65,76,72,65,99,88,69,29.77,29.56,20,7,20,1.51
2013-5-21,67,63,59,66,62,59,99,98,86,29.86,29.64,17,4,17,0.38
2013-5-22,83,69,54,63,60,54,99,76,47,29.88,29.75,11,4,11,0.01
2013-5-23,67,63,59,64,61,58,99,94,78,30.09,29.88,14,4,14,0.01
2013-5-24,84,71,59,71,65,59,99,82,63,30.17,30.05,12,7,12,0.00
2013-5-25,87,76,66,73,66,60,92,75,57,30.14,29.95,19,9,19,0.00
2013-5-26,87,78,69,74,71,68,99,81,63,30.01,29.87,21,10,21,0.00
2013-5-27,87,79,70,74,71,67,99,78,63,29.90,29.66,27,13,32,0.00
2013-5-28,85,79,76,72,71,70,88,76,65,29.76,29.66,23,13,26,0.00
2013-5-29,82,76,64,72,70,63,99,82,72,29.77,29.62,23,13,29,0.65
2013-5-30,81,71,63,75,69,51,99,93,63,29.73,29.59,21,9,28,2.04
2013-5-31,90,80,70,78,75,70,99,87,65,29.70,29.55,21,10,24,0.04
2013-6-1,83,73,64,70,64,59,99,77,49,29.97,29.59,14,6,17,0.00
2013-6-2,75,65,56,60,58,55,97,79,57,30.04,29.96,11,5,14,0.00
2013-6-3,84,69,51,69,61,51,99,80,53,29.99,29.79,12,5,16,0.00
2013-6-4,83,74,66,72,69,65,99,83,67,29.91,29.74,18,6,25,0.31
2013-6-5,86,75,66,73,69,65,99,85,62,29.92,29.80,22,7,23,0.99
2013-6-6,82,72,63,67,63,58,99,75,45,29.92,29.86,14,6,16,0.00
2013-6-7,86,72,56,64,60,56,99,70,41,29.96,29.85,9,3,14,0.00
2013-6-8,86,73,61,68,62,58,91,70,45,29.88,29.73,17,6,22,0.00
2013-6-9,92,80,68,69,65,60,92,63,36,29.86,29.76,13,5,18,0.00
2013-6-10,98,85,69,74,70,63,91,63,42,29.86,29.78,14,6,17,0.00
2013-6-11,97,87,76,76,72,68,80,62,40,29.90,29.81,19,10,23,0.00
2013-6-12,97,88,78,77,74,72,90,66,46,29.90,29.81,23,11,23,0.00
2013-6-13,97,84,75,77,73,68,97,71,48,29.99,29.86,10,4,13,0.00
2013-6-14,99,86,72,80,76,71,99,74,50,29.94,29.82,12,5,14,0.00
2013-6-15,90,80,74,79,76,72,99,89,67,29.95,29.89,16,7,21,0.05
2013-6-16,95,79,72,80,74,69,99,84,58,29.94,29.81,17,5,19,0.00
2013-6-17,84,74,67,74,70,67,99,88,68,29.95,29.82,20,5,22,0.47
2013-6-18,92,79,66,75,69,65,99,75,42,29.99,29.88,11,4,12,0.00
2013-6-19,88,80,67,72,70,66,99,75,55,29.99,29.88,17,6,17,0.00
2013-6-20,95,84,74,80,75,70,91,74,58,29.96,29.85,17,10,22,0.00
2013-6-21,97,86,78,77,75,71,91,71,46,29.98,29.89,18,10,20,0.00
2013-6-22,95,86,75,75,73,69,94,68,45,29.96,29.82,24,10,24,0.00
2013-6-23,96,86,78,76,74,72,88,68,47,29.89,29.79,23,12,25,0.00
2013-6-24,95,86,77,75,73,70,88,69,46,29.95,29.83,17,10,22,0.00
2013-6-25,92,85,78,77,75,73,89,73,57,29.88,29.73,24,11,26,0.00
2013-6-26,100,89,79,81,76,72,84,69,51,29.85,29.75,14,7,17,0.00
2013-6-27,103,90,79,82,78,69,91,69,47,29.90,29.77,19,5,24,0.00
2013-6-28,101,88,75,75,70,63,87,60,35,29.93,29.77,13,6,14,0.00
2013-6-29,96,82,68,65,61,57,85,52,29,29.88,29.76,18,7,21,0.00
2013-6-30,87,77,66,62,60,58,83,57,40,29.94,29.82,17,7,20,0.00
2013-7-1,89,76,63,64,60,51,91,62,29,30.03,29.94,14,7,21,0.00
2013-7-2,90,75,57,62,57,51,93,58,28,30.06,29.98,14,4,14,0.00
2013-7-3,90,74,57,62,58,55,96,60,31,30.06,29.93,9,3,14,0.00
2013-7-4,95,78,60,68,63,57,94,62,35,30.00,29.88,15,5,20,0.00
2013-7-5,96,82,67,69,66,61,91,60,32,29.95,29.83,14,6,18,0.00
2013-7-6,90,81,72,71,68,65,81,65,48,29.93,29.85,14,7,18,0.00
2013-7-7,97,86,74,74,70,67,81,62,39,29.97,29.88,14,6,16,0.00
2013-7-8,99,86,75,77,74,70,86,67,45,30.02,29.93,15,6,21,0.00
2013-7-9,102,90,80,76,75,73,81,61,43,29.99,29.87,15,8,18,0.00
2013-7-10,107,92,80,78,73,70,75,56,33,29.94,29.83,11,4,11,0.00
2013-7-11,104,89,78,80,76,71,90,67,43,29.94,29.83,14,5,23,0.00
2013-7-12,99,88,76,78,74,70,90,66,46,29.95,29.87,14,6,17,0.00
2013-7-13,99,88,77,74,70,66,83,58,40,29.98,29.85,13,7,17,0.00
2013-7-14,92,79,71,73,68,65,94,70,41,29.99,29.88,19,4,21,0.13
2013-7-15,84,74,65,73,69,65,99,87,61,30.13,29.99,21,6,33,0.48
2013-7-16,94,80,70,76,74,70,99,84,53,30.19,30.11,20,4,21,0.04
2013-7-17,97,84,72,78,74,71,99,73,45,30.25,30.12,11,4,13,0.00
2013-7-18,98,85,71,76,73,71,99,70,43,30.15,29.96,10,3,13,0.00
2013-7-19,100,87,74,75,73,68,95,66,38,29.99,29.83,11,4,13,0.00
2013-7-20,98,86,74,76,72,70,88,66,42,29.90,29.76,19,6,23,0.00
2013-7-21,91,77,68,79,74,68,99,91,66,29.91,29.75,14,6,20,2.14
2013-7-22,96,86,78,80,76,72,93,73,54,29.85,29.70,19,6,19,0.00
2013-7-23,104,90,70,79,77,70,98,66,43,29.92,29.71,34,5,42,0.26
2013-7-24,93,79,68,75,72,67,99,81,53,29.97,29.79,24,5,30,0.18
2013-7-25,89,79,69,76,72,68,99,82,54,30.03,29.94,9,3,11,0.00
2013-7-26,82,76,69,78,73,69,99,93,76,29.99,29.90,11,5,17,0.37
2013-7-27,86,75,65,69,66,63,99,76,48,30.03,29.91,12,4,15,0.01
2013-7-28,85,75,66,72,67,64,95,78,58,29.99,29.91,17,6,19,0.00
2013-7-29,92,79,69,78,72,66,95,82,63,29.96,29.86,17,9,21,0.00
2013-7-30,94,81,70,78,74,70,99,83,57,29.98,29.91,10,4,10,0.52
2013-7-31,80,77,74,78,76,74,99,98,90,30.02,29.96,7,3,9,0.00
2013-8-1,94,82,69,75,71,67,99,73,43,30.05,29.90,10,3,10,0.00
2013-8-2,97,84,76,82,77,70,99,81,59,29.93,29.76,15,6,15,0.00
2013-8-3,85,79,74,78,75,74,99,89,73,30.01,29.81,16,6,21,0.26
2013-8-4,81,76,74,79,76,74,99,98,91,30.04,29.95,8,3,11,0.01
2013-8-5,100,87,74,80,77,74,99,75,49,29.92,29.74,13,6,13,0.00
2013-8-6,101,88,75,78,76,73,97,69,45,29.83,29.70,13,6,13,0.00
2013-8-7,92,84,78,83,78,74,95,81,67,29.86,29.75,17,7,17,0.08
2013-8-8,89,80,70,78,75,70,99,87,67,29.90,29.77,14,6,14,0.18
2013-8-9,88,76,68,77,73,68,99,91,67,30.00,29.85,20,5,20,0.90
2013-8-10,88,76,67,74,71,66,99,86,62,30.08,29.98,11,5,11,0.00
2013-8-11,94,80,71,77,74,70,99,82,55,30.05,29.95,7,3,8,0.00
2013-8-12,88,79,72,78,76,72,99,90,70,30.03,29.90,11,3,16,0.35
2013-8-13,85,75,69,77,73,69,99,95,72,30.02,29.91,14,4,16,0.50
2013-8-14,85,74,65,71,67,64,99,80,55,30.08,29.99,14,5,14,0.00
2013-8-15,68,66,63,63,63,62,96,89,84,30.04,30.02,6,2,8,0.00
2013-8-16,85,74,64,69,67,64,99,81,56,30.06,29.93,12,4,12,0.13
2013-8-17,83,72,61,66,63,61,99,78,49,30.11,30.00,12,4,14,0.00
2013-8-18,89,75,60,70,66,60,99,77,48,30.09,29.98,7,3,11,0.00
2013-8-19,90,79,64,72,69,64,99,74,53,30.06,29.94,10,4,12,0.00
2013-8-20,93,79,66,72,69,66,99,73,46,30.03,29.93,11,5,14,0.00
2013-8-21,96,82,67,72,69,66,99,70,41,30.03,29.95,9,4,11,0.00
2013-8-22,96,84,73,75,72,69,88,69,44,30.05,29.93,11,5,11,0.00
2013-8-23,96,82,71,76,73,70,99,75,46,30.01,29.91,13,4,17,0.00
2013-8-24,96,83,71,77,74,71,99,77,50,30.07,29.96,12,4,14,0.00
2013-8-25,96,84,71,77,74,71,99,73,50,30.14,30.04,10,4,14,0.00
2013-8-26,95,84,74,75,73,70,95,71,47,30.14,30.02,11,5,11,0.00
2013-8-27,94,83,71,74,71,68,92,69,44,30.06,29.95,13,5,13,0.00
2013-8-28,96,84,73,76,74,71,97,73,49,30.02,29.93,14,4,14,0.00
2013-8-29,101,88,78,76,73,70,87,64,37,30.00,29.91,8,4,11,0.00
2013-8-30,103,89,77,74,72,70,86,60,35,29.94,29.80,10,5,12,0.00
2013-8-31,105,92,79,74,72,68,75,54,32,29.84,29.73,10,5,12,0.00
2013-9-1,93,85,77,78,74,70,91,72,57,29.86,29.73,13,4,17,0.00
2013-9-2,89,78,70,75,69,65,99,78,47,29.94,29.86,10,4,11,0.00
2013-9-3,92,75,61,71,64,60,99,74,37,30.03,29.93,12,3,15,0.00
2013-9-4,96,78,61,71,67,60,99,72,40,30.08,29.98,10,3,12,0.00
2013-9-5,96,81,65,70,66,63,99,65,38,30.12,30.00,11,4,12,0.00
2013-9-6,97,82,68,69,67,64,91,63,37,30.07,29.92,10,4,10,0.00
2013-9-7,101,87,73,70,67,64,76,54,34,29.97,29.85,11,5,12,0.00
2013-9-8,101,87,74,72,69,66,85,57,34,29.91,29.81,12,4,14,0.00
2013-9-9,97,86,73,72,67,64,79,56,35,29.93,29.85,17,5,18,0.00
2013-9-10,96,84,74,70,67,64,78,58,38,30.05,29.91,17,5,19,0.00
2013-9-11,98,83,68,70,66,64,92,62,33,30.10,29.96,10,3,11,0.00
2013-9-12,97,82,69,74,71,67,97,71,45,30.05,29.95,14,4,14,0.00
2013-9-13,88,76,66,72,61,55,99,63,37,30.04,29.92,14,7,17,0.00
2013-9-14,88,74,58,63,59,55,92,63,41,30.01,29.89,10,5,12,0.00
2013-9-15,91,80,67,71,63,55,71,57,45,29.98,29.90,14,6,17,0.00
2013-9-16,85,75,69,74,71,69,99,88,62,30.14,29.96,12,6,17,0.11
2013-9-17,81,72,67,74,70,67,99,92,71,30.08,29.91,11,4,13,0.25
2013-9-18,94,81,73,77,72,69,92,75,52,29.94,29.81,16,7,26,0.08
2013-9-19,93,77,69,75,72,66,99,87,53,29.91,29.79,17,6,36,0.41
2013-9-20,72,67,56,69,63,55,99,88,65,29.97,29.87,14,4,15,0.18
2013-9-21,82,66,50,62,56,49,99,74,42,29.99,29.86,10,3,10,0.00
2013-9-22,82,66,48,61,54,48,99,69,37,29.93,29.78,9,3,13,0.00
2013-9-23,82,69,56,60,56,53,93,66,42,29.86,29.72,13,6,17,0.00
2013-9-24,83,71,60,62,60,56,91,69,48,29.85,29.79,15,6,19,0.00
2013-9-25,88,70,55,65,61,55,99,75,42,29.87,29.74,7,2,8,0.00
2013-9-26,92,77,64,66,63,61,90,65,39,29.84,29.75,15,8,21,0.00
2013-9-27,90,78,67,67,64,61,90,63,39,29.91,29.78,21,9,24,0.00
2013-9-28,77,67,54,69,63,53,99,87,66,30.04,29.78,19,7,21,1.45
2013-9-29,78,62,48,65,54,48,99,80,45,30.05,29.89,9,3,11,0.01
2013-9-30,84,65,50,66,56,49,99,78,37,29.90,29.76,9,3,14,0.00
2013-10-1,88,75,65,74,68,65,99,81,49,29.91,29.79,15,6,16,0.00
2013-10-2,88,74,69,74,71,69,99,91,60,29.94,29.85,14,6,15,0.00
2013-10-3,86,80,74,75,73,72,94,80,68,29.84,29.70,18,11,21,0.00
2013-10-4,88,79,72,74,72,70,99,79,55,29.84,29.73,17,11,24,0.00
2013-10-5,78,58,48,70,49,44,99,76,43,30.06,29.82,17,6,27,0.99
2013-10-6,69,57,46,49,45,40,91,66,45,30.00,29.93,17,6,21,0.00
2013-10-7,78,60,42,50,45,39,92,63,31,30.14,29.98,7,2,8,0.00
2013-10-8,77,62,46,54,51,46,99,71,41,30.09,29.96,15,5,19,0.00
2013-10-9,59,57,55,51,51,50,86,80,76,29.98,29.97,8,5,9,0.00
2013-10-10,82,66,54,64,58,53,97,75,51,30.02,29.81,12,6,17,0.00
2013-10-11,83,72,62,71,66,58,98,82,65,29.82,29.73,21,10,21,0.01
2013-10-12,75,65,55,71,57,53,99,77,50,30.11,29.80,21,8,21,0.20
2013-10-13,76,66,58,64,57,51,84,74,62,30.24,30.11,15,6,16,0.00
2013-10-14,65,62,58,65,60,57,99,93,82,30.15,29.87,14,6,17,0.83
2013-10-15,67,59,52,67,55,48,99,88,66,30.05,29.83,15,7,17,0.02
2013-10-16,63,51,40,48,45,40,99,80,53,30.12,29.99,11,5,14,0.01
2013-10-17,69,53,40,51,46,40,99,81,48,30.03,29.90,10,3,13,0.01
2013-10-18,55,46,39,50,44,39,99,96,75,30.11,29.97,14,6,17,0.18
2013-10-19,65,48,32,46,39,32,99,76,42,30.11,29.95,11,4,13,0.01
2013-10-20,72,56,43,46,43,40,93,66,34,29.95,29.79,16,7,21,0.00
2013-10-21,63,52,43,48,44,39,93,76,43,30.09,29.88,14,4,17,0.00
2013-10-22,75,56,40,49,44,38,99,69,34,30.06,29.91,17,5,19,0.00
2013-10-23,67,52,37,45,41,37,99,70,38,30.15,29.95,10,3,11,0.00
2013-10-24,59,48,39,44,36,29,98,66,33,30.37,30.03,16,6,22,0.00
2013-10-25,61,47,32,37,30,24,90,57,25,30.43,30.17,11,5,15,0.00
2013-10-26,69,56,48,51,44,38,86,67,49,30.16,30.03,8,4,11,0.00
2013-10-27,71,53,36,45,30,11,83,50,10,30.09,29.92,6,2,8,0.00
2013-10-28,71,60,50,55,52,41,95,75,50,30.09,29.95,12,6,14,0.00
2013-10-29,76,67,61,67,62,55,94,85,74,30.01,29.86,17,10,21,0.02
2013-11-15,57,54,52,44,39,36,68,58,46,29.76,29.74,17,12,21,0.33
2013-11-16,75,65,54,58,52,44,80,65,41,29.75,29.49,23,14,27,0.15
2013-11-17,75,66,48,59,25,-4,69,29,10,30.07,29.46,24,10,27,0.00
2013-11-18,65,50,35,26,15,-1,57,29,10,30.23,30.05,13,3,14,0.00
2013-11-19,58,53,46,18,8,0,32,17,10,30.17,29.95,15,9,20,0.00
2013-11-20,60,54,45,37,23,12,45,30,20,29.97,29.81,18,10,22,0.01
2013-11-21,59,48,33,45,38,24,77,68,39,30.34,29.88,20,8,22,0.05
2013-11-22,34,31,29,23,18,15,73,60,47,30.53,30.34,20,8,23,0.05
2013-11-23,40,32,25,19,6,-9,60,35,13,30.64,30.50,21,7,21,0.00
2013-11-24,30,26,21,4,0,-3,43,33,24,30.65,30.29,13,5,14,0.00
2013-11-25,36,33,29,21,13,-2,57,45,24,30.30,30.15,11,4,13,0.00
2013-11-26,49,36,27,21,10,-5,59,36,12,30.36,30.13,19,7,23,0.00
2013-11-27,32,20,0,-1,-4,-15,40,25,12,30.43,30.25,15,3,15,0.00
2013-11-28,59,39,27,15,2,-8,52,24,10,30.39,30.21,10,4,13,0.00
2013-11-29,56,42,27,16,6,-7,52,27,10,30.43,30.23,14,5,16,0.00
2013-11-30,61,48,38,34,24,12,61,40,26,30.24,30.03,14,6,18,0.00
2013-12-1,53,46,37,42,36,28,77,70,61,30.06,29.85,4,1,5,0.00
2013-12-2,61,50,44,45,39,34,87,67,38,29.84,29.61,8,3,11,0.00
2013-12-3,59,49,43,51,42,37,95,78,54,29.60,29.46,9,4,13,0.01
2013-12-4,49,42,30,44,32,12,86,68,47,29.93,29.42,14,8,18,0.00
2013-12-5,28,23,20,7,0,-6,53,36,26,30.27,30.00,20,10,20,0.00
2013-12-6,23,18,12,7,-3,-15,61,42,19,30.54,30.23,17,8,21,0.00
2013-12-7,21,15,6,-2,-10,-13,42,32,22,30.61,30.25,13,7,16,0.00
2013-12-8,29,25,19,17,10,-2,64,55,35,30.23,29.94,11,5,14,0.00
2013-12-9,26,21,17,11,3,-4,54,45,29,30.36,30.14,13,6,15,0.00
2013-12-10,37,24,11,4,-1,-10,58,36,13,30.39,30.19,11,5,13,0.00
2013-12-11,38,27,16,9,0,-10,55,33,13,30.57,30.22,18,4,21,0.00
2013-12-12,44,29,14,13,2,-8,47,34,11,30.57,30.18,14,4,16,0.00
2013-12-13,41,36,32,29,20,12,72,52,37,30.17,29.77,18,8,22,0.15
2013-12-14,38,32,22,31,16,8,75,53,29,30.22,29.80,21,7,22,0.01
2013-12-15,60,39,20,15,5,-6,60,32,10,30.22,30.04,13,5,14,0.00
2013-12-16,70,50,38,11,6,-5,31,18,10,30.09,29.98,9,4,11,0.00
2013-12-17,63,44,31,16,8,-7,46,26,10,30.27,30.08,12,3,14,0.00
2013-12-18,68,50,31,21,9,0,47,23,10,30.22,29.83,24,8,25,0.00
2013-12-19,63,58,52,43,34,21,54,41,27,29.83,29.60,20,11,25,0.00
2013-12-20,61,36,27,45,16,3,59,45,31,29.93,29.59,17,6,21,0.00
2013-12-21,31,30,27,20,18,14,64,61,57,29.81,29.47,0,0,0,0.00
2013-12-22,31,28,25,21,14,10,65,56,51,30.35,29.72,0,0,0,0.00
2013-12-23,26,21,15,10,6,-1,56,51,45,30.56,30.34,0,0,0,0.00
2013-12-24,39,26,13,18,8,-2,55,48,40,30.55,30.14,11,1,11,0.07
2013-12-25,42,32,25,24,17,11,62,53,35,30.36,30.22,9,3,11,0.43
2013-12-26,51,36,22,24,12,0,63,41,12,30.35,30.22,12,3,13,0.01
2013-12-27,60,43,31,11,5,-6,41,23,10,30.35,30.23,10,4,12,0.00
2013-12-28,59,45,34,16,8,-1,41,24,10,30.23,29.87,13,6,15,0.00
2013-12-29,44,30,18,20,-4,-30,38,23,10,30.27,29.88,20,8,22,0.00
2013-12-30,40,24,10,-11,-17,-30,31,16,10,30.32,30.19,8,3,9,0.00
2013-12-31,57,38,20,1,-5,-13,37,17,10,30.32,30.09,16,6,21,0.00
2014-1-1,52,37,16,9,0,-8,44,23,10,30.25,29.84,23,8,24,0.00
2014-1-2,32,20,9,-3,-13,-25,43,25,10,30.44,30.25,16,5,19,0.00